Location: ?
(35.4064°N, 139.3593°E)
Time: 14:18:29
(UTC+00:00)

SL-16 R/B - Pass Details

Date: 18 April 2024
Orbit: 839 x 849 km, 71.0° (Epoch: 18 May)

Event Time Altitude Azimuth Distance (km) Brightness Sun altitude
Exits shadow 16:38:59 20° 95° (E) 1,861 4.2 -35.8°
Drops below altitude 10° 16:42:36 10° 55° (NE) 2,461 5.3 -35.4°
Sets 16:45:40 0° 39° (NE) 3,402 6.4 -35.0°
